This demonstration page uses our WeatherBlox Daily Observations layout. Learn more.

Left ArrowRight Arrow

39.92423, -83.80882

Hourly Observations for August 25, 2016

Temp ( °F °C ) Dew Point ( °F °C ) Humidity (%) Winds ( mph kmh ) Pressure ( in mb ) Visibility ( mi km ) Precip ( " mm )
12:28 am 00:28 Mostly Cloudy with Nearby Thunderstorms 75 24 72 22 89 89 SSW 13 20 30.03 1017 10 16.0934 N/A
12:56 am 00:56 Cloudy with Heavy Rain 71 21.7 67 19.4 87 87 WNW 16 26 30.06 1018 5 8.0467 0.13 3.302
1:03 am 01:03 Cloudy with Heavy Thunderstorms 70 21 68 20 94 94 NW 12 19 30.06 1018 5 8.0467 0.12 3.048
1:11 am 01:11 Cloudy with Heavy Rain 72 22 72 22 100 100 W 9 15 30.03 1017 2.5 4.02335 0.42 10.668
1:16 am 01:16 Cloudy with Light Rain 72 22 70 21 94 94 SW 8 13 30.06 1018 5 8.0467 0.42 10.668
1:21 am 01:21 Cloudy with Nearby Thunderstorms 72 22 70 21 94 94 VRB 5 7 30.06 1018 10 16.0934 0.42 10.668
1:34 am 01:34 Cloudy 72 22 70 21 94 94 N N/A 30.06 1018 10 16.0934 0.43 10.922
1:41 am 01:41 Cloudy with Thunderstorms 72 22 70 21 94 94 N N/A 30.06 1018 10 16.0934 0.43 10.922
1:56 am 01:56 Cloudy with Thunderstorms 71 21.7 70 21.1 96 96 N N/A 30.05 1018 10 16.0934 0.43 10.922
2:04 am 02:04 Cloudy 72 22 70 21 94 94 N N/A 30.03 1017 10 16.0934 N/A
2:13 am 02:13 Cloudy 72 22 70 21 94 94 N N/A 30.03 1017 10 16.0934 N/A
2:36 am 02:36 Cloudy 72 22 70 21 94 94 N N/A 30.06 1018 10 16.0934 N/A
2:56 am 02:56 Mostly Cloudy 70 21.1 70 21.1 100 100 N N/A 30.04 1017 10 16.0934 N/A
3:39 am 03:39 Cloudy 72 22 70 21 94 94 N N/A 30.06 1018 10 16.0934 N/A
3:56 am 03:56 Mostly Cloudy 70 21.1 70 21.1 100 100 SW 5 7 30.06 1018 10 16.0934 N/A
4:26 am 04:26 Partly Cloudy with Nearby Thunderstorms 73 23 72 22 94 94 WSW 7 11 30.06 1018 10 16.0934 N/A
4:48 am 04:48 Mostly Cloudy with Thunderstorms 73 23 73 23 100 100 NW 7 11 30.06 1018 10 16.0934 N/A
4:56 am 04:56 Cloudy with Light Thunderstorms 73 22.8 72 22.2 96 96 NNW 5 7 30.06 1018 9 14.48406 N/A
5:08 am 05:08 Cloudy with Nearby Thunderstorms 72 22 72 22 100 100 N N/A 30.06 1018 10 16.0934 N/A
5:32 am 05:32 Cloudy 72 22 72 22 100 100 N N/A 30.06 1018 7 11.26538 N/A
5:56 am 05:56 Cloudy with Mist and Fog 72 22.2 72 22.2 100 100 E 3 6 30.05 1018 6 9.65604 N/A
6:09 am 06:09 Cloudy with Mist and Fog 72 22 72 22 100 100 N N/A 30.06 1018 6 9.65604 N/A
6:56 am 06:56 Cloudy 74 23.3 73 22.8 97 97 WSW 6 9 30.06 1018 9 14.48406 N/A
7:23 am 07:23 Cloudy 75 24 73 23 94 94 SW 5 7 30.06 1018 9 14.48406 N/A
8:56 am 08:56 Partly Cloudy 77 25 75 23.9 94 94 SW 7 11 30.06 1018 10 16.0934 N/A
9:13 am 09:13 Mostly Cloudy 77 25 75 24 94 94 SSW 6 9 30.06 1018 10 16.0934 N/A
9:56 am 09:56 Cloudy 78 25.6 75 23.9 90 90 SSW 9 15 30.05 1018 10 16.0934 N/A
10:08 am 10:08 Cloudy 79 26 75 24 89 89 SW 8 13 30.06 1018 10 16.0934 N/A
10:22 am 10:22 Cloudy 79 26 75 24 89 89 SSW 9 15 30.06 1018 10 16.0934 N/A
10:56 am 10:56 Cloudy 80 26.7 76 24.4 87 87 SW 8 13 30.06 1018 10 16.0934 N/A
11:56 am 11:56 Cloudy 82 27.8 77 25 85 85 SW 13 20 30.06 1018 8 12.87472 N/A
12:27 pm 12:27 Cloudy 84 29 77 25 79 79 WSW 13 20 30.03 1017 10 16.0934 N/A
12:56 pm 12:56 Cloudy 83 28.3 78 25.6 85 85 SSW 8 13 30.06 1018 10 16.0934 N/A
1:56 pm 13:56 Mostly Cloudy 84 28.9 77 25 80 80 SSW 12 19 30.05 1018 10 16.0934 N/A
2:13 pm 14:13 Partly Cloudy 84 29 75 24 74 74 SSW 15 24 30.03 1017 10 16.0934 N/A
2:56 pm 14:56 Mostly Cloudy 85 29.4 77 25 77 77 SSW 9 15 30.05 1018 10 16.0934 N/A
3:12 pm 15:12 Mostly Cloudy 86 30 75 24 70 70 SW 15 24 30.03 1017 10 16.0934 N/A
3:19 pm 15:19 Mostly Cloudy 86 30 77 25 75 75 SW 12 19 30.03 1017 10 16.0934 N/A
3:56 pm 15:56 Mostly Cloudy 86 30 76 24.4 72 72 WSW 12 19 30.04 1017 10 16.0934 N/A
4:56 pm 16:56 Partly Cloudy 87 30.6 74 23.3 65 65 WSW 14 22 30.03 1017 10 16.0934 N/A
5:56 pm 17:56 Partly Cloudy 85 29.4 73 22.8 68 68 WSW 10 17 30.03 1017 10 16.0934 N/A
6:56 pm 18:56 Mostly Cloudy 84 28.9 74 23.3 72 72 WSW 7 11 30.03 1017 10 16.0934 N/A
7:56 pm 19:56 Sunny 80 26.7 73 22.8 79 79 WSW 7 11 30.03 1017 10 16.0934 N/A
8:56 pm 20:56 Clear 76 24.4 72 22.2 88 88 WSW 6 9 30.04 1017 10 16.0934 N/A
9:56 pm 21:56 Clear 77 25 72 22.2 85 85 WSW 5 7 30.06 1018 10 16.0934 N/A
10:56 pm 22:56 Clear 75 23.9 71 21.7 88 88 W 6 9 30.06 1018 10 16.0934 N/A
11:56 pm 23:56 Mostly Cloudy 75 23.9 72 22.2 90 90 W 5 7 30.07 1018 10 16.0934 N/A

Powered by AerisWeather